Theta_e
336 339 346 346 348 350 350 351 350 351 351 350 351 351 350 350 351 350 349 350 349 349 349 350 349 349 349 349 349 349 350 350 350 349 349 348 349 349 349 348 348 349 349 350 349 350 350 351 350 350 350 349 348 346 344 344 343 341 339 339 339 340 341 342 343 342 342 344 348 350 351 351 350 351 350 350 349 349 349 349 351 347 350 351 352
334 340 346 348 348 350 350 350 350 350 351 351 351 351 351 351 351 350 349 349 349 349 349 350 349 349 349 350 349 349 349 349 349 349 348 348 348 348 348 348 348 349 349 349 350 350 350 350 350 350 348 348 346 345 344 342 341 340 338 337 337 338 338 341 341 340 340 341 342 344 346 350 350 351 350 350 350 350 349 350 350 347 348 350 352
337 340 346 348 347 350 350 350 350 351 351 351 351 350 351 350 350 350 350 349 349 349 350 350 349 349 349 350 349 349 349 348 348 348 348 348 348 348 348 348 349 349 349 350 349 349 349 349 349 348 346 345 344 342 341 341 340 339 337 335 335 336 336 339 338 339 339 339 340 342 343 346 349 350 350 350 351 351 349 349 349 348 350 349 349
336 340 345 347 344 347 350 350 350 350 351 351 350 350 350 350 350 350 350 349 349 349 349 349 349 350 349 349 349 349 349 348 348 349 349 349 349 348 348 348 349 348 348 349 348 348 348 348 348 347 345 343 342 340 339 338 338 338 336 334 334 334 336 336 337 337 337 337 338 342 347 350 349 349 349 350 350 350 349 349 348 349 348 349 349
334 341 345 347 349 347 349 350 351 350 351 351 351 350 350 350 350 349 350 349 349 349 349 349 349 349 349 349 349 349 348 348 348 349 349 348 347 348 348 348 348 348 347 348 347 347 347 346 346 345 342 341 339 339 338 337 336 336 335 332 332 333 336 335 336 335 336 335 337 341 347 347 350 349 349 349 349 348 348 348 348 349 348 348 349
336 341 344 346 347 349 346 349 351 350 351 351 351 350 350 350 349 348 348 348 349 349 349 349 349 349 349 349 348 348 348 348 348 347 347 347 346 346 347 347 348 347 347 347 347 346 345 344 343 342 340 338 337 336 336 335 335 333 332 331 331 332 335 334 334 333 333 334 336 343 345 347 346 349 348 348 349 347 347 347 347 348 348 348 348
338 342 344 345 346 346 345 349 350 350 350 350 350 350 350 349 349 348 348 348 349 349 348 349 349 349 348 348 348 348 347 347 347 346 345 345 345 345 346 347 347 346 346 346 345 344 343 343 341 341 339 337 336 335 334 333 333 331 330 330 331 332 332 331 331 330 330 336 342 342 343 346 347 348 348 348 348 347 347 347 347 347 346 347 347
340 343 344 345 346 345 343 349 350 350 350 350 350 350 349 349 349 348 348 348 348 349 348 349 348 348 348 348 347 347 346 346 346 344 344 344 344 345 345 345 346 346 345 344 343 342 342 341 339 338 337 336 334 334 333 332 331 330 328 328 329 329 329 328 327 327 330 335 341 342 343 344 346 347 347 348 349 348 347 347 347 347 346 345 345
338 341 343 344 345 343 343 346 350 350 350 350 350 349 349 349 348 348 348 348 348 348 348 348 348 347 347 347 346 346 346 345 344 343 342 342 342 343 342 342 343 344 343 342 342 341 340 339 337 336 335 334 332 331 331 330 330 329 327 327 327 327 326 325 324 326 331 335 337 340 343 342 344 345 346 348 347 347 346 346 347 347 346 345 345
337 340 342 343 345 341 343 345 350 350 350 350 350 349 349 348 348 348 348 348 348 348 348 347 347 347 347 346 346 346 345 343 342 341 340 339 340 340 341 340 340 340 340 340 340 339 338 337 336 335 334 332 330 329 329 328 327 327 326 325 325 325 324 323 322 328 331 333 336 339 340 338 343 344 345 347 347 346 344 342 345 345 345 345 345
338 339 341 342 345 340 344 347 348 348 349 349 350 349 348 348 348 348 348 348 348 348 347 347 347 345 346 346 345 345 344 343 342 340 339 338 338 339 339 339 338 338 338 338 338 337 336 335 334 333 332 330 328 327 326 325 325 324 324 323 323 323 323 321 324 329 331 333 334 337 338 338 343 344 345 346 345 343 342 343 343 343 343 343 343
336 338 340 342 339 337 342 346 347 349 349 349 348 348 348 348 348 348 348 348 347 347 347 346 346 346 346 345 344 344 343 342 341 339 338 337 337 338 339 337 337 336 336 336 336 335 335 334 333 331 330 328 326 325 325 324 323 322 322 322 322 321 319 319 325 327 330 332 333 335 339 339 338 341 341 342 341 340 340 340 340 340 341 340 341
335 336 339 342 345 336 339 345 345 347 348 348 347 348 347 348 347 347 347 348 348 347 346 346 346 345 344 344 344 343 342 340 339 338 338 337 336 336 337 336 335 335 334 334 334 333 333 332 331 329 327 326 324 324 324 323 322 321 320 319 319 319 317 318 323 326 328 330 332 334 337 339 339 337 338 339 339 339 338 338 339 339 340 339 339
335 336 339 341 343 336 334 340 342 346 347 347 348 347 347 347 347 347 347 347 347 347 346 345 345 344 344 344 342 342 340 340 338 337 336 335 335 334 335 334 334 333 333 333 333 332 332 331 330 328 326 324 324 323 322 321 321 319 319 318 317 315 314 317 322 325 326 328 329 332 335 335 336 336 337 337 338 338 337 336 337 337 337 337 338
335 337 339 340 340 342 331 335 339 340 343 345 346 346 346 347 346 346 346 346 345 346 344 344 344 344 343 342 341 340 339 337 335 334 332 333 333 333 333 333 332 332 332 332 331 330 329 329 328 327 325 324 323 322 321 320 319 317 317 315 315 313 313 317 321 322 324 326 328 331 333 334 333 333 334 335 335 335 335 335 335 334 334 334 334
336 336 338 339 340 342 341 332 332 333 337 341 343 343 344 345 345 345 345 344 344 344 344 344 343 343 342 341 339 339 339 336 334 333 332 331 331 332 332 332 331 330 331 331 330 329 329 328 327 325 324 323 322 320 320 318 318 316 315 313 312 311 310 316 318 320 321 324 326 329 331 331 330 331 332 333 333 333 333 333 333 333 333 333 333
334 336 337 337 339 341 342 341 338 329 330 331 336 337 340 342 343 344 343 343 343 343 343 343 342 343 343 341 340 340 337 336 333 332 332 331 331 331 330 331 331 331 331 331 330 329 329 327 325 324 323 322 320 320 318 317 316 314 313 312 310 309 309 312 317 318 319 322 325 327 329 331 329 329 330 330 330 331 331 331 331 331 332 332 332
333 335 335 336 337 338 340 341 342 339 342 333 328 332 336 338 339 340 340 338 339 340 342 341 340 339 337 337 335 335 335 335 334 332 331 330 330 330 330 330 330 330 330 330 329 329 327 326 324 324 322 320 319 317 316 314 313 312 311 310 309 308 307 311 315 317 318 321 323 326 327 327 327 328 328 328 328 329 329 329 329 330 330 330 330
331 332 334 336 336 336 337 340 340 341 340 340 340 338 329 333 335 336 337 337 336 336 338 336 335 335 335 333 331 329 329 330 331 331 331 331 330 328 329 330 330 329 328 329 329 328 326 325 324 323 321 319 319 316 315 313 311 310 308 306 305 304 306 310 313 315 317 318 321 324 325 325 326 326 327 326 326 326 327 327 328 329 329 328 328
330 330 331 333 335 335 336 337 338 339 339 339 339 340 331 326 330 332 333 334 334 334 333 331 328 328 328 327 324 327 325 328 323 328 327 329 328 326 329 329 328 328 328 329 327 326 325 324 322 321 320 318 317 315 313 312 310 308 306 305 303 304 306 308 311 313 314 316 320 322 321 324 325 326 326 325 325 325 325 326 328 328 328 327 327
326 328 329 331 333 333 334 335 336 337 338 338 338 338 338 325 326 326 327 330 331 330 330 325 322 321 323 319 321 330 330 330 331 329 322 329 322 321 327 329 328 328 327 327 326 325 324 323 322 320 318 316 314 312 311 310 308 307 304 302 303 304 305 307 308 309 313 315 319 321 320 323 324 325 325 325 324 324 325 325 326 326 326 326 326
325 326 327 329 330 331 332 333 334 335 337 337 337 338 338 330 336 337 336 332 327 325 330 334 325 333 321 326 331 330 330 330 329 324 327 327 325 320 325 328 327 325 325 325 324 324 323 323 321 319 317 314 310 311 307 305 305 304 301 302 304 303 305 305 306 308 311 314 317 318 319 322 324 325 325 323 323 324 325 326 326 326 326 326 326
324 326 326 327 328 329 330 331 332 334 335 335 335 336 336 335 336 336 336 328 331 332 333 332 333 333 331 331 329 329 329 329 328 326 327 320 324 318 323 325 325 324 323 323 323 323 321 319 317 314 311 306 307 307 306 304 301 299 301 305 303 303 304 304 304 306 309 312 316 314 318 320 323 324 325 324 324 325 325 325 325 325 324 324 324
324 326 326 327 327 328 329 330 331 333 333 333 334 334 334 334 335 335 334 334 334 333 334 333 332 333 331 330 329 329 328 328 317 315 318 325 324 317 320 322 322 321 321 320 320 319 317 315 312 308 304 307 305 303 303 303 302 303 304 302 302 304 304 303 303 304 307 310 314 312 317 320 322 323 324 324 324 324 324 324 324 324 323 323 323
324 326 327 325 325 327 328 329 330 331 332 332 332 332 333 333 333 333 333 332 332 333 332 332 332 332 330 329 329 327 327 326 325 324 324 324 324 324 324 324 322 321 317 320 319 317 314 311 305 303 303 305 304 303 304 302 302 303 302 301 301 303 302 302 302 302 305 309 312 311 314 318 321 323 324 324 324 323 324 324 323 323 323 323 323
324 323 324 325 325 325 327 327 328 329 330 331 331 331 331 331 332 332 332 332 332 331 330 330 329 329 329 328 325 325 325 324 324 323 323 323 322 322 322 322 322 321 319 319 316 314 309 305 303 303 303 304 304 304 304 302 302 301 301 302 302 302 302 301 301 302 303 307 310 310 312 316 319 321 323 323 323 324 324 324 323 323 323 322 322
320 321 324 325 325 325 326 327 326 326 327 329 330 331 330 331 331 331 331 330 330 329 328 328 328 327 327 325 324 323 323 322 321 322 321 322 321 322 321 320 320 317 317 314 311 309 304 302 302 303 302 303 303 303 302 303 303 302 302 302 301 301 301 301 301 301 303 305 309 308 311 314 319 320 321 322 323 323 323 323 323 322 322 322 322
320 320 321 323 324 323 324 325 325 325 326 326 326 328 329 329 330 328 328 328 328 328 327 327 326 324 324 324 323 323 321 320 320 320 320 320 319 320 319 317 317 315 313 311 308 304 302 302 303 303 303 302 302 302 301 301 302 302 302 302 302 301 301 300 300 301 302 304 308 307 310 313 317 319 320 321 322 322 323 323 323 323 322 322 321
316 318 320 321 322 323 323 324 324 324 325 325 325 326 328 328 328 327 326 324 326 326 326 326 323 323 322 322 322 321 320 319 318 318 318 318 318 317 316 315 314 312 310 307 306 303 302 302 302 301 302 301 301 301 301 301 300 301 301 301 301 301 300 300 301 301 302 302 306 307 308 312 316 318 319 320 321 321 322 322 322 321 321 321 321
315 317 318 319 321 322 322 323 324 324 324 324 324 324 325 326 327 326 325 324 324 326 326 323 323 320 319 320 320 321 319 317 317 317 316 316 316 315 314 313 311 309 307 305 303 302 301 301 302 302 302 301 300 300 300 300 300 300 300 300 300 300 300 300 300 300 301 302 305 307 306 309 313 315 316 318 319 320 321 321 320 320 321 321 321
314 315 317 318 319 320 321 322 323 323 324 323 323 323 324 324 324 325 324 323 323 324 323 323 321 319 319 318 319 319 318 317 316 315 314 314 314 313 313 312 310 307 306 304 303 303 302 301 301 300 300 300 300 299 299 299 299 299 299 300 300 299 299 299 300 301 301 302 304 307 309 307 310 312 314 317 318 318 318 318 318 318 320 320 320
313 313 315 317 318 318 319 320 322 323 322 323 323 323 323 323 324 323 322 322 323 323 323 322 318 318 317 316 317 317 316 315 315 313 313 312 312 311 311 309 309 306 304 303 301 302 302 303 303 302 302 301 300 299 300 298 298 298 299 299 299 299 298 299 299 300 301 302 303 305 308 309 306 309 311 313 314 315 316 316 316 317 318 318 318
314 314 315 316 315 316 317 319 320 321 321 322 322 322 323 322 322 322 322 322 321 321 322 321 319 318 316 314 315 315 314 314 313 312 311 311 310 310 309 308 308 305 303 303 302 302 301 300 300 300 300 300 299 298 299 299 298 298 298 298 298 298 299 299 299 300 301 302 302 302 305 308 308 306 306 308 310 312 313 314 315 316 317 317 317
314 314 314 313 314 316 316 318 319 319 320 321 321 322 322 322 322 322 322 321 320 320 320 320 319 317 315 314 313 313 312 312 312 311 310 309 308 308 308 306 306 304 302 302 300 299 299 299 298 298 297 298 298 297 296 297 297 297 298 297 298 298 298 299 299 300 300 301 301 302 302 303 305 306 306 303 305 309 311 312 312 314 315 315 315
312 313 313 313 313 314 314 314 316 318 319 320 319 320 322 321 321 321 321 321 320 320 320 319 317 316 315 312 311 311 310 310 310 309 308 307 306 306 306 305 304 303 301 300 299 299 300 299 297 297 297 297 298 297 298 297 296 296 297 297 297 298 298 298 299 299 299 300 300 301 301 300 300 302 303 302 301 302 306 309 310 312 313 313 314
311 312 313 313 311 312 313 313 314 316 318 318 319 320 320 321 321 317 321 320 319 318 318 318 317 315 313 312 311 310 309 309 308 308 306 305 304 304 304 304 303 301 300 300 300 299 299 299 298 299 296 296 297 296 297 297 297 297 297 297 297 296 297 297 298 298 299 299 300 300 300 299 299 298 299 300 299 300 300 304 307 308 308 309 311
310 311 311 312 311 311 311 311 312 314 316 317 318 319 319 319 319 319 319 319 318 316 317 317 316 314 312 311 309 308 308 307 307 306 305 304 303 302 302 302 301 300 300 299 298 299 299 299 298 298 298 296 296 296 296 296 296 296 296 297 297 297 297 297 298 298 299 299 299 298 298 298 296 297 297 297 297 296 296 299 301 302 304 306 307
310 310 311 311 311 311 311 311 311 312 314 316 316 317 317 318 318 318 317 316 317 316 316 315 315 313 311 309 309 307 306 306 306 305 304 304 303 302 301 301 300 299 299 298 298 299 299 298 296 297 298 296 295 295 294 295 296 296 295 296 296 296 297 297 297 296 297 298 297 297 297 296 296 296 296 296 296 295 295 295 297 298 298 302 305
308 309 309 310 311 311 310 309 310 311 312 314 315 316 316 316 316 316 315 314 315 315 314 313 313 313 310 309 307 307 305 305 304 304 303 302 301 301 300 300 299 299 299 298 298 298 298 297 297 295 297 297 296 296 295 296 296 295 295 294 295 295 296 296 296 297 297 297 297 297 297 296 296 295 295 295 295 295 296 295 296 297 297 297 300
307 307 307 309 310 310 310 309 308 309 310 311 313 313 313 312 312 312 312 312 312 311 312 312 312 311 310 308 307 306 305 304 303 303 302 301 300 300 299 299 298 298 298 297 297 296 296 297 297 296 294 295 297 297 296 294 294 294 293 294 294 294 294 294 296 296 296 297 295 295 295 295 295 295 295 294 295 295 295 295 294 294 295 294 295
305 305 306 307 308 308 309 308 308 308 307 307 309 310 310 310 310 310 309 310 310 310 310 310 310 310 309 308 307 305 304 303 303 302 301 300 300 299 298 298 298 298 297 297 298 297 297 297 296 295 294 293 293 296 296 296 293 292 293 293 293 294 293 293 293 294 295 295 295 294 294 294 294 294 294 294 294 294 294 294 294 294 294 295 293
305 303 304 306 307 308 307 308 308 307 306 306 307 308 310 310 309 309 309 309 308 307 307 308 308 309 308 307 306 305 304 303 302 302 301 301 299 298 298 297 297 297 298 298 299 297 297 296 296 294 295 293 292 294 296 294 292 292 290 290 290 291 292 292 292 292 294 294 294 295 294 294 293 293 294 293 293 293 293 293 294 294 294 294 294
304 304 304 305 306 307 307 307 308 307 306 306 306 306 308 309 309 308 307 307 308 308 308 308 307 306 306 306 305 305 304 303 302 301 300 300 299 298 297 297 297 297 297 297 297 297 296 295 295 293 293 295 294 295 295 296 293 295 295 292 289 289 290 290 292 292 292 293 293 294 294 294 293 294 293 293 293 292 292 293 293 293 293 293 293
304 304 303 303 304 305 306 307 307 307 306 306 305 307 307 308 308 307 306 307 305 305 305 305 304 304 303 304 304 304 303 302 302 301 300 300 299 298 297 296 296 297 297 296 296 296 295 295 294 294 294 291 293 291 295 296 298 295 291 292 292 292 289 289 289 290 292 292 292 292 293 292 292 293 293 293 292 292 292 292 292 292 292 293 293
304 304 303 303 302 303 305 306 306 306 306 306 305 306 305 305 305 304 304 303 303 302 302 302 303 302 302 302 302 303 303 302 302 301 299 299 299 298 297 297 296 296 296 296 296 296 296 295 295 294 293 292 291 291 292 295 295 299 296 292 289 289 291 294 290 290 291 291 291 292 292 292 291 292 292 292 293 292 292 291 292 292 292 292 293
301 301 302 302 302 303 304 305 305 305 305 305 305 305 304 303 302 301 299 299 299 300 299 300 300 300 300 302 302 301 302 302 301 301 300 299 299 299 298 297 296 296 296 296 296 296 296 295 295 295 294 294 293 293 291 293 294 296 295 298 299 294 293 293 291 288 290 291 292 292 292 292 292 292 292 292 292 292 291 291 291 291 291 292 292
299 301 302 302 302 302 303 304 304 305 305 305 305 304 304 303 303 302 302 301 300 301 302 302 301 301 302 301 300 301 301 301 301 301 300 299 299 299 298 297 296 296 296 296 295 296 296 296 295 294 295 295 296 292 292 291 292 292 294 295 295 292 297 293 291 293 287 289 291 291 291 292 291 291 291 291 292 292 291 291 291 291 291 292 292
299 300 301 301 301 301 302 303 303 303 304 304 304 304 303 303 303 302 302 302 302 302 302 301 302 301 300 300 300 300 300 300 300 300 300 299 299 298 298 297 296 296 295 295 295 296 296 296 295 295 295 295 296 293 293 293 289 290 292 291 291 292 293 295 300 296 294 289 288 290 291 291 290 290 291 291 291 291 291 290 291 290 290 291 291
300 299 299 300 301 301 302 302 302 303 303 303 303 303 303 303 303 303 302 302 303 303 303 302 301 300 299 299 299 299 299 299 300 299 299 299 298 298 298 297 296 296 295 295 296 296 296 295 294 294 294 294 295 295 295 294 292 292 291 291 292 292 292 294 294 295 295 293 292 288 288 290 289 290 290 291 291 292 291 291 290 291 290 291 291
298 299 299 299 300 300 300 301 301 301 302 302 302 302 303 302 302 302 302 302 302 302 302 301 301 301 299 299 299 298 298 298 298 299 299 299 298 298 297 297 296 296 295 295 296 296 296 296 295 294 294 294 294 294 294 295 295 294 294 293 291 291 291 290 291 293 294 296 293 291 291 287 286 288 290 290 290 290 290 290 289 289 290 290 290
297 297 297 298 298 298 298 299 299 300 300 301 301 301 302 302 301 302 302 302 302 302 301 300 300 299 298 299 298 298 298 297 297 298 298 298 298 298 297 297 297 296 295 295 295 295 295 295 295 295 294 294 293 293 295 296 295 295 295 294 292 292 291 290 291 292 292 291 291 293 293 291 291 290 289 290 290 290 290 290 289 289 289 290 290
Wind_Speed
9 8 11 14 14 15 17 17 16 14 14 14 13 13 13 14 13 12 12 11 10 10 10 9 10 10 10 9 9 10 9 9 9 8 7 7 7 6 6 5 5 5 7 8 9 9 9 10 11 11 12 12 12 11 11 11 12 11 11 11 11 11 11 11 11 11 10 10 11 12 12 11 11 11 11 12 11 11 10 8 7 8 7 9 12
16 11 10 13 13 16 17 17 16 16 15 14 14 14 13 13 12 12 12 11 11 11 11 10 10 9 9 9 9 9 9 9 9 9 8 8 7 7 6 6 6 6 7 9 10 10 11 11 11 12 11 11 11 10 10 10 10 10 10 10 10 10 10 10 10 10 9 9 9 9 10 10 10 11 11 11 11 11 10 10 10 6 7 9 11
14 12 10 13 13 13 15 17 17 17 16 15 14 14 14 13 12 12 12 11 11 10 10 10 10 10 10 10 9 10 9 9 9 9 9 8 7 7 7 7 7 8 9 10 10 11 11 11 12 11 11 11 10 9 9 9 9 10 10 10 10 9 9 9 9 8 8 7 6 6 8 10 10 9 10 10 11 11 11 11 10 8 8 10 10
13 12 10 13 12 12 13 15 16 16 16 15 15 14 13 14 12 12 12 12 12 11 10 10 10 10 10 10 10 10 10 10 10 10 9 9 8 7 7 7 8 8 9 10 10 10 10 9 11 11 11 10 10 9 8 8 9 9 9 9 8 8 8 8 7 7 6 6 4 1 5 6 7 7 10 10 11 11 10 11 11 11 11 11 12
12 11 11 13 14 13 12 13 15 16 16 15 15 14 14 14 13 13 12 12 12 12 11 11 11 11 11 11 11 11 11 11 11 11 10 9 9 9 9 9 8 8 9 10 10 10 9 9 11 12 12 10 10 9 8 8 8 9 9 8 8 7 7 6 6 6 5 3 3 2 5 5 6 7 8 10 10 10 9 10 11 11 9 11 12
11 10 11 13 14 16 12 13 15 16 15 15 15 13 15 14 14 13 12 12 12 12 12 12 11 11 12 11 11 11 11 11 11 11 10 9 8 8 8 8 8 9 9 9 9 9 8 9 9 11 11 11 9 8 8 8 8 8 9 9 8 7 8 7 6 5 3 2 3 2 4 4 5 5 6 8 9 9 9 10 11 10 9 9 11
11 9 10 12 13 15 13 13 16 17 16 16 15 14 14 14 14 13 13 13 13 12 12 12 12 13 12 12 12 12 12 11 11 10 9 9 8 7 8 8 9 9 9 10 8 8 8 8 9 10 11 10 9 8 8 8 8 8 8 9 9 8 8 8 8 6 5 5 2 2 3 3 4 4 6 7 8 9 10 10 10 10 10 8 9
10 8 10 12 12 13 12 12 15 17 17 15 14 15 14 14 13 13 13 13 13 13 13 13 12 12 12 12 12 12 12 11 10 9 9 8 8 8 8 8 9 9 8 8 7 6 8 9 9 10 10 10 9 9 8 8 8 8 8 8 8 8 8 7 7 6 7 1 2 2 3 3 3 3 8 8 9 9 9 9 9 10 10 9 6
11 11 11 11 11 12 11 12 14 15 17 15 14 14 14 14 14 13 13 13 13 13 13 13 12 12 12 13 13 13 12 10 9 8 7 7 7 7 6 6 7 7 6 6 6 5 6 9 9 9 10 10 9 9 9 9 9 9 9 8 8 8 7 7 6 8 0 3 3 3 3 3 2 4 7 8 9 9 7 7 10 11 11 9 6
11 10 11 11 12 10 10 10 13 14 16 16 14 14 14 14 13 14 14 13 13 12 12 12 13 13 13 13 12 11 10 9 8 8 6 5 5 6 6 5 5 5 5 5 5 5 6 9 9 9 10 10 9 9 9 9 9 9 9 9 9 8 7 6 4 4 3 3 4 5 5 8 3 4 8 9 12 11 12 13 12 9 9 9 9
12 11 10 11 13 10 10 11 12 12 15 15 14 15 15 14 13 14 13 13 13 12 12 12 12 13 13 12 12 11 10 9 9 8 6 6 4 5 6 6 4 5 5 5 5 5 6 9 10 10 10 10 10 9 9 9 10 10 9 10 9 9 8 7 5 4 4 4 5 4 4 5 3 5 10 12 12 11 9 8 7 8 9 10 10
12 11 12 11 7 7 8 11 11 12 12 13 15 15 15 14 13 13 14 12 13 12 11 12 12 12 13 12 11 10 10 9 8 8 7 6 6 7 7 6 5 5 5 5 5 6 7 9 10 10 10 10 10 9 10 10 10 9 9 9 9 9 8 7 4 4 4 5 6 5 5 4 3 7 7 8 8 8 7 6 6 6 6 7 8
13 13 13 11 11 6 7 10 11 12 12 12 15 15 15 15 15 14 13 14 12 12 12 12 13 13 11 10 10 10 9 9 8 8 9 8 8 7 6 7 7 6 7 6 6 7 8 9 10 10 10 10 10 10 10 10 10 10 9 9 8 8 7 7 4 4 4 5 5 5 4 4 5 6 4 5 6 6 6 5 5 6 7 6 7
13 13 12 11 12 8 7 8 11 11 12 13 14 14 14 14 15 15 14 13 14 14 14 13 11 11 11 11 10 11 10 10 10 10 11 9 9 8 8 8 8 8 8 7 8 8 8 10 10 10 10 10 10 10 10 10 10 10 10 9 8 7 4 4 4 4 5 5 5 5 5 2 5 5 5 5 6 6 6 6 5 5 5 6 8
12 14 13 10 9 9 7 6 8 8 10 12 12 12 14 14 14 13 14 12 11 11 12 11 11 12 11 11 11 9 9 10 12 9 7 9 10 10 9 9 9 9 9 9 8 8 8 9 10 10 10 10 10 10 10 10 10 10 10 9 8 7 6 3 3 4 4 4 4 5 5 4 4 4 5 5 5 5 5 5 4 4 6 7 7
10 14 11 11 11 11 9 7 7 7 7 9 11 11 12 12 12 11 11 12 12 12 10 11 11 10 11 11 10 10 13 11 8 9 10 10 10 10 10 10 9 9 9 9 9 9 10 10 10 11 11 10 10 10 10 11 11 10 10 9 8 7 7 4 3 3 3 3 3 3 4 5 7 4 4 5 4 4 4 4 4 3 6 6 7
11 13 13 10 9 12 13 12 9 8 6 7 9 10 10 10 11 11 12 11 13 11 10 11 11 11 10 10 11 12 8 7 10 10 10 10 10 10 10 10 9 9 10 9 10 10 10 11 11 10 10 10 10 10 10 10 10 10 10 9 8 8 6 5 3 3 3 4 3 3 4 4 6 4 4 4 4 4 4 3 3 4 6 6 7
12 12 11 11 10 10 14 14 13 10 10 8 8 10 10 9 9 8 10 10 9 9 10 12 11 8 7 5 4 6 8 6 8 11 10 10 10 9 10 10 10 10 10 10 10 10 11 11 11 11 10 10 10 10 10 10 10 10 9 9 8 7 6 4 4 3 4 3 3 3 4 6 4 4 5 4 3 3 3 2 3 4 6 6 6
7 9 12 14 13 10 11 13 14 15 15 12 10 10 11 10 9 8 8 10 10 9 6 9 8 6 5 5 7 8 8 8 6 8 9 8 6 6 8 10 10 10 10 10 11 11 11 11 11 11 11 11 11 11 10 10 9 9 9 8 7 6 3 2 4 3 2 2 2 3 5 8 3 3 4 4 3 3 3 2 3 5 6 6 6
8 9 10 10 11 12 11 12 13 15 14 14 13 13 10 10 9 8 8 9 10 10 7 7 8 7 6 7 8 8 8 7 6 6 6 7 7 8 8 9 11 11 11 11 11 11 11 11 11 11 11 11 11 11 10 10 10 9 8 7 5 1 2 3 4 3 2 3 2 3 6 6 4 4 4 4 4 3 2 3 5 6 6 6 6
6 9 10 10 11 11 12 10 12 14 15 13 13 13 10 9 7 8 9 9 10 10 8 8 9 8 7 8 9 8 8 8 7 9 7 8 9 7 7 9 11 11 11 11 11 11 11 11 12 12 12 12 11 11 10 9 9 8 7 5 2 2 4 3 2 3 2 2 3 4 6 5 4 4 4 4 3 3 4 5 6 6 7 6 6
10 9 11 11 11 11 12 12 10 12 12 10 7 7 7 8 12 10 9 8 9 10 9 9 9 8 9 8 8 9 9 8 9 10 9 8 8 7 7 10 11 11 11 11 11 11 11 11 11 11 11 11 9 5 6 8 8 7 6 2 2 3 3 3 2 3 2 2 3 5 5 4 3 4 4 4 4 4 5 6 6 7 7 7 6
9 11 11 14 12 10 11 13 12 11 12 10 6 8 10 10 11 12 8 9 10 10 11 10 10 10 10 9 10 9 10 8 8 8 7 9 9 7 7 8 11 9 11 11 11 11 11 11 11 10 10 8 3 3 3 3 4 3 1 2 3 3 3 3 2 2 2 3 2 7 5 4 2 3 4 4 4 5 5 6 6 6 7 7 7
12 11 11 10 12 11 13 13 12 12 11 10 9 9 10 10 10 10 10 9 10 9 10 10 10 10 10 10 9 9 9 8 7 7 6 8 6 6 7 9 9 8 10 9 11 10 12 11 10 11 7 3 3 3 3 3 3 2 2 2 2 2 2 2 2 2 2 2 3 7 6 3 2 2 3 4 5 5 6 6 6 6 6 7 7
9 8 8 10 14 13 12 12 11 10 11 10 10 10 11 10 10 10 10 11 12 9 9 9 9 9 10 9 9 7 8 8 8 8 9 8 8 9 8 8 8 9 10 8 8 8 7 6 6 5 4 3 3 3 3 3 3 3 2 2 3 2 2 2 2 2 2 1 3 7 7 4 3 1 3 5 5 6 6 6 6 6 7 7 6
7 8 11 11 13 13 12 11 12 13 13 11 11 10 11 11 11 10 10 11 12 9 9 9 8 9 9 9 8 8 9 8 9 9 10 9 9 9 9 9 9 8 8 6 6 6 5 5 5 5 4 3 3 3 3 3 3 3 3 3 2 2 2 2 2 2 1 1 3 7 7 6 3 1 2 4 5 6 7 6 7 7 7 6 6
8 10 10 10 12 14 14 12 13 14 19 15 11 10 11 11 11 10 10 11 9 9 9 9 9 10 9 8 9 9 10 9 9 10 10 9 9 8 8 8 8 8 8 6 6 5 5 5 5 4 4 4 3 3 3 2 2 3 3 2 2 2 2 2 2 2 1 2 3 7 7 6 6 0 2 4 5 5 6 6 6 7 7 6 7
7 10 10 10 10 15 15 15 13 14 14 17 18 14 11 12 12 10 10 11 9 10 10 9 9 9 10 10 10 10 10 10 10 10 10 9 10 9 8 8 8 7 6 6 6 5 5 5 5 4 5 4 4 3 3 3 2 2 3 2 2 2 2 2 2 1 2 2 2 4 8 5 6 2 2 3 5 4 6 6 6 6 7 6 7
11 12 10 10 12 13 15 17 15 16 14 15 16 14 12 11 11 11 11 12 11 11 10 9 8 9 9 10 11 11 10 10 10 11 9 10 9 8 8 8 7 7 6 6 6 6 5 5 5 5 4 4 4 3 3 3 2 2 2 3 2 2 2 2 2 1 1 2 2 3 7 7 5 3 2 3 3 4 5 5 5 5 6 6 6
15 11 11 11 11 13 16 18 17 15 15 14 14 14 15 13 13 12 11 12 14 13 10 9 9 9 9 10 11 11 11 11 10 10 10 10 9 8 8 8 8 7 7 7 6 6 6 5 5 5 5 4 4 3 3 3 2 2 2 2 2 2 2 2 2 2 2 2 2 4 5 8 7 5 5 4 4 4 4 5 5 3 5 6 6
11 13 12 11 10 12 14 16 17 15 14 15 14 15 13 13 14 13 12 13 14 16 11 10 9 9 10 11 11 11 10 10 10 10 9 9 8 8 9 7 7 7 7 6 6 5 5 5 5 5 5 5 4 3 3 3 3 2 2 2 2 2 2 2 2 2 3 3 3 3 3 6 9 8 5 6 7 6 5 4 4 3 4 5 5
12 14 12 10 11 15 15 16 16 15 15 15 14 14 14 14 14 14 13 13 14 15 13 10 10 9 10 10 11 11 10 10 10 10 10 9 9 9 8 8 8 7 7 6 6 5 5 4 4 4 4 4 4 3 2 3 3 2 2 2 2 2 2 2 3 2 2 3 4 4 4 4 8 11 10 8 8 8 7 7 5 3 4 4 5
10 12 12 11 14 13 13 16 17 17 18 17 14 13 12 13 15 15 12 12 14 15 11 11 10 10 9 10 10 11 10 10 9 9 9 9 9 9 8 8 7 7 6 6 6 5 4 5 4 4 4 3 4 3 2 2 3 2 2 2 2 2 2 2 2 3 3 3 3 4 4 4 5 9 12 11 9 8 8 7 7 7 5 4 4
8 8 11 14 12 9 10 11 15 17 18 16 13 12 13 13 13 13 12 12 14 13 11 10 10 9 9 10 10 10 10 9 9 9 9 9 8 9 9 8 7 7 6 6 6 6 6 6 6 5 5 4 4 4 4 3 3 2 2 2 2 2 2 2 3 3 3 3 3 4 4 4 4 4 5 10 11 9 8 7 7 7 7 5 5
8 8 13 15 14 11 9 9 13 17 16 17 15 14 13 12 12 12 12 14 12 12 11 10 10 9 9 9 11 10 10 10 9 9 10 9 9 9 9 8 7 7 7 7 7 6 6 6 6 6 5 4 4 4 4 4 3 3 2 3 2 2 2 2 3 3 3 3 3 3 3 3 3 4 4 4 7 10 9 8 8 7 7 7 5
13 12 11 10 13 14 12 13 12 16 15 17 16 14 13 12 11 11 11 13 11 11 11 11 10 10 9 9 11 10 11 11 10 10 10 9 8 9 8 8 8 7 7 7 6 7 6 6 6 6 7 6 5 5 3 3 3 3 2 2 2 3 3 3 3 4 3 4 3 3 3 3 2 2 2 3 3 5 10 9 9 9 8 7 6
13 12 12 11 13 14 13 16 16 18 16 16 14 13 12 12 11 11 11 11 11 10 10 10 10 10 9 9 11 11 11 11 11 10 9 9 8 8 8 8 8 7 7 6 7 6 6 6 6 5 6 6 6 6 4 3 3 3 2 2 2 3 3 3 4 3 3 3 4 4 3 3 4 2 2 2 2 3 6 9 10 11 10 8 6
11 13 13 12 13 12 12 14 13 13 13 13 14 12 11 11 10 9 9 10 11 9 9 9 10 10 9 10 11 11 11 12 12 11 10 9 9 8 7 8 8 7 6 7 7 5 6 7 7 6 5 6 6 7 6 4 3 3 3 2 2 2 2 3 3 4 4 4 4 4 4 4 3 2 2 2 2 2 3 4 7 10 12 9 7
8 11 11 10 8 9 9 10 11 11 11 10 10 11 10 10 8 9 9 10 9 9 9 10 10 10 11 12 11 12 11 12 12 12 11 10 9 9 8 9 8 7 7 7 7 6 6 7 7 7 4 4 6 6 6 5 4 3 3 3 1 1 1 2 3 3 3 4 3 3 3 4 4 3 3 2 1 2 1 1 1 2 5 10 9
6 6 9 9 9 9 8 8 11 11 10 9 8 9 9 10 10 9 9 10 10 9 10 10 10 11 11 12 12 12 12 12 13 13 12 11 11 10 9 9 9 9 9 9 8 8 9 9 7 8 8 3 2 5 6 7 6 5 4 3 2 1 1 2 2 3 3 4 4 4 4 3 3 3 3 2 2 2 1 1 2 2 3 6 8
5 5 6 8 9 9 8 10 9 10 9 9 9 10 10 10 10 11 11 9 10 10 10 10 10 10 11 12 12 12 12 13 13 13 13 11 10 9 9 9 9 9 10 10 10 9 8 8 7 7 9 8 5 5 7 7 8 5 4 3 3 2 2 2 3 3 3 4 4 4 4 4 3 3 3 2 3 2 2 1 1 1 2 2 4
3 3 6 6 7 8 9 8 7 9 10 10 9 9 10 10 9 9 9 8 9 10 10 10 10 8 9 10 10 11 11 12 11 12 12 12 11 9 10 11 11 10 10 9 9 8 9 8 8 7 6 9 7 8 8 9 7 7 7 5 3 3 3 2 3 4 4 4 4 4 4 4 4 3 3 3 3 3 2 2 1 1 1 2 2
5 4 4 4 5 6 8 8 7 9 9 10 9 9 9 9 8 6 8 7 6 7 7 7 8 8 8 9 9 10 11 10 11 12 11 12 12 11 11 10 12 10 10 9 10 10 10 12 12 10 9 6 5 7 9 11 7 7 6 6 5 5 4 4 5 5 5 5 4 5 4 4 4 4 4 3 4 3 2 2 2 2 2 1 2
5 4 3 4 4 5 6 7 7 8 8 9 9 8 8 7 7 3 4 6 5 6 7 5 6 7 9 9 9 10 11 11 12 12 10 11 13 12 11 11 12 12 12 11 12 12 11 11 11 11 10 9 7 9 9 9 5 10 7 7 5 5 3 8 8 7 7 5 5 5 5 4 5 4 4 4 3 3 3 3 3 3 2 2 2
8 8 7 5 4 5 4 5 6 7 7 8 10 8 6 6 5 2 1 4 3 5 6 10 9 9 10 10 11 10 11 11 11 13 12 13 12 12 12 12 12 12 12 12 12 13 13 12 13 12 14 13 11 9 10 9 9 6 4 5 2 3 6 3 9 6 7 6 7 6 6 6 5 5 4 3 3 3 3 4 3 3 3 3 3
11 10 8 6 6 5 4 3 4 5 6 8 9 9 8 8 7 7 9 9 9 9 11 10 9 11 12 9 10 12 12 12 11 12 13 11 12 12 12 11 12 11 12 11 10 10 12 12 13 13 14 13 11 10 10 9 8 8 7 4 2 2 4 6 8 5 7 7 6 7 6 7 5 5 4 4 4 3 3 3 3 4 4 4 4
12 9 8 8 7 5 4 3 3 4 4 6 8 8 8 9 11 11 10 10 10 8 7 7 8 7 7 10 10 11 13 13 12 12 13 13 12 12 12 12 12 12 11 11 12 13 12 13 11 12 12 12 11 11 12 11 7 8 6 5 3 2 3 8 7 5 5 6 6 7 7 7 6 6 5 5 4 4 3 3 4 4 4 4 4
11 10 10 10 10 9 7 5 3 3 3 5 7 8 9 9 9 10 9 10 10 8 6 7 6 7 7 9 8 8 10 11 10 11 11 12 11 11 11 11 11 11 10 12 12 11 10 10 12 13 10 12 12 12 12 11 13 11 9 7 5 2 4 6 4 6 4 7 7 6 6 8 7 7 7 6 5 5 5 4 4 4 4 4 4
13 12 12 11 11 10 9 6 4 3 2 5 6 8 8 8 8 8 9 8 8 7 4 6 7 7 8 8 8 8 9 11 11 11 12 12 11 11 11 11 11 11 9 10 10 11 13 14 13 12 12 12 11 12 10 10 11 9 9 7 5 5 4 4 3 3 6 7 6 10 8 6 6 8 7 6 5 5 5 5 4 5 5 5 5
13 14 13 12 12 11 11 10 8 4 3 3 5 6 8 7 7 8 9 8 7 7 6 5 5 5 7 9 8 8 8 9 11 12 12 14 13 13 12 13 13 11 10 12 11 10 11 10 12 13 13 13 11 11 13 10 10 9 10 8 9 6 4 5 5 6 3 3 5 7 8 10 9 9 9 8 8 7 6 6 6 6 5 5 5
16 17 16 14 13 13 12 12 10 7 5 3 3 5 6 7 7 8 9 9 8 7 6 6 5 5 7 7 7 7 7 8 9 9 11 12 13 13 12 13 12 11 11 12 12 12 11 11 11 11 11 13 11 11 10 8 8 10 10 9 11 11 11 10 10 8 8 7 5 4 6 8 8 7 8 8 7 7 6 5 6 7 7 6 6
Wind_Direction
200 179 164 161 179 180 177 176 178 178 175 176 174 172 170 165 161 158 156 155 155 156 154 153 154 152 151 151 148 144 142 140 141 138 136 139 138 140 139 137 141 137 120 120 114 114 117 112 106 99 88 83 81 76 73 70 67 66 63 61 58 58 57 57 53 54 51 51 60 68 72 83 82 79 77 74 68 57 44 31 354 69 56 52 46
171 181 169 165 178 183 177 176 177 177 177 178 177 174 171 168 164 161 160 163 165 165 167 167 164 163 163 162 158 155 152 150 150 149 148 148 147 146 145 148 149 141 134 128 123 120 118 117 110 95 89 81 78 75 74 73 70 71 68 66 63 58 58 52 53 56 53 53 59 62 61 57 74 83 80 79 76 68 54 33 15 46 63 57 54
155 169 169 168 176 186 179 178 177 178 178 178 178 177 173 169 169 166 165 168 171 174 176 173 171 170 172 168 168 164 160 158 155 152 150 146 145 144 146 145 144 136 138 132 130 124 122 115 106 99 91 87 83 76 70 70 73 73 73 70 70 65 62 55 57 52 51 51 57 86 93 70 45 79 84 81 78 73 65 53 39 48 63 58 60
154 168 168 162 176 190 181 180 179 179 179 181 178 177 175 171 172 174 172 171 177 180 182 177 177 175 176 173 171 169 163 160 155 151 146 139 137 135 134 134 131 138 133 130 125 123 117 119 109 97 87 84 82 78 70 61 63 67 70 72 72 73 68 69 63 57 54 45 31 59 86 93 88 70 86 86 83 74 70 66 62 59 62 62 59
164 166 169 167 179 189 184 183 179 180 181 182 177 182 175 173 177 177 176 176 178 184 183 181 180 179 180 175 173 170 165 160 153 147 140 136 134 131 132 134 137 134 130 127 120 114 110 106 94 95 93 86 81 78 74 66 57 56 60 64 63 64 61 63 66 76 65 46 355 260 90 89 85 84 90 89 85 82 80 76 69 66 63 64 61
165 168 170 173 179 179 187 186 181 180 184 182 178 184 173 176 176 179 180 181 183 185 185 182 184 183 181 178 172 167 162 154 148 142 135 133 131 133 133 133 134 131 125 120 116 111 121 107 102 100 98 93 89 85 80 74 67 58 54 55 57 50 43 39 43 43 66 82 241 99 94 84 87 98 102 95 89 84 82 76 73 69 65 67 72
168 166 173 178 180 179 186 187 182 182 184 183 178 179 182 179 177 178 184 186 183 187 187 187 188 185 181 176 170 164 159 151 144 141 134 130 132 132 130 130 127 126 123 112 113 124 121 112 106 102 100 97 94 91 87 82 76 68 62 56 53 49 39 30 19 10 342 252 90 84 94 85 89 85 105 102 92 86 83 78 74 73 64 53 48
170 169 176 179 186 167 183 186 182 184 183 185 181 180 182 180 180 181 186 187 186 185 189 192 189 184 180 173 166 161 152 153 145 141 135 137 137 127 123 127 128 126 123 116 115 116 110 108 104 100 96 95 92 89 84 80 76 70 64 60 58 53 44 33 15 359 322 30 37 46 67 85 97 90 96 99 94 91 85 80 79 80 73 58 18
177 174 175 180 188 160 183 185 184 182 185 183 181 184 182 182 182 185 188 189 188 191 189 193 188 180 172 168 161 160 157 151 150 146 149 146 144 134 127 130 124 122 126 131 124 119 116 107 104 100 97 95 91 86 83 80 77 73 68 64 58 53 46 36 19 326 286 42 52 63 38 70 97 104 84 87 84 87 89 104 114 92 70 53 53
174 176 179 183 187 153 184 186 185 182 185 183 178 181 183 182 185 188 189 190 193 192 191 186 185 176 166 165 162 160 158 155 159 151 153 154 162 159 158 140 156 154 147 153 140 132 126 109 105 101 98 95 91 86 83 80 77 73 71 66 59 52 45 30 352 30 38 49 58 60 39 322 93 66 88 95 87 82 71 52 50 53 70 66 65
174 176 179 188 187 157 183 186 181 183 180 177 176 181 183 183 185 189 189 192 193 191 189 182 178 171 164 163 163 160 157 159 162 166 149 173 200 178 175 171 161 170 160 169 160 147 136 112 107 104 101 97 93 89 84 80 77 74 71 66 59 50 38 15 319 68 49 45 46 45 50 305 73 83 96 88 87 85 80 75 79 84 81 74 69
174 176 185 187 152 165 182 182 177 180 176 172 179 180 181 180 185 188 191 188 189 183 181 178 170 171 168 169 164 163 165 162 167 169 184 182 215 202 179 176 174 173 174 171 166 156 130 114 109 106 102 99 96 91 86 82 81 79 73 67 62 54 39 15 30 53 53 55 48 25 31 24 99 87 89 95 88 83 78 82 84 77 80 81 74
176 180 185 183 176 168 196 180 175 178 175 174 180 180 180 180 182 185 183 184 180 177 178 179 182 181 174 170 173 170 175 183 181 180 181 192 203 210 182 185 184 178 176 172 167 161 125 116 111 108 105 101 97 93 89 86 85 81 77 72 65 57 46 16 60 55 52 45 47 30 34 72 73 21 81 60 65 64 62 58 74 76 75 75 76
174 182 182 178 178 165 201 185 179 174 170 176 179 180 181 182 182 182 186 183 181 176 182 186 179 185 185 179 186 180 182 189 177 200 206 186 200 201 191 186 184 182 177 173 163 138 126 118 114 111 107 102 98 95 93 90 87 84 78 71 63 54 27 58 47 64 59 54 45 32 34 43 69 26 79 64 60 59 61 60 58 64 71 76 77
179 182 179 178 174 178 185 196 181 188 177 178 181 179 184 182 187 184 188 187 197 183 190 198 194 194 191 198 191 203 191 198 226 218 206 211 201 196 189 190 187 184 176 173 147 135 129 124 118 113 109 105 102 98 96 93 89 85 80 72 62 48 360 79 58 76 66 50 52 45 48 60 36 58 56 70 61 55 54 53 56 61 67 67 68
189 186 180 182 181 182 183 186 199 191 193 191 187 189 189 191 189 196 201 191 197 202 201 198 209 207 205 212 210 190 213 219 205 198 204 202 203 198 194 194 188 187 180 171 145 137 131 125 118 113 110 108 104 101 95 92 89 84 80 74 63 49 29 345 88 73 76 58 51 51 57 59 21 67 68 57 60 59 50 38 37 42 59 59 60
195 193 188 188 186 187 189 189 190 194 198 203 187 185 196 200 197 203 208 198 191 202 198 203 210 209 215 202 204 201 192 191 199 199 196 199 201 199 195 191 187 185 177 159 147 141 133 124 119 116 113 108 104 99 94 90 86 84 80 75 65 56 35 348 87 70 64 51 40 34 49 50 20 56 59 52 51 53 40 33 17 41 58 58 55
195 191 193 193 195 196 195 196 193 196 199 194 196 191 194 203 205 211 209 205 203 205 206 205 206 212 209 207 174 136 147 168 187 199 192 197 197 196 192 191 186 180 166 153 146 137 130 127 123 119 113 108 103 99 95 90 88 84 80 75 70 58 49 11 77 79 67 44 62 43 63 11 30 55 61 57 63 49 33 24 25 48 55 59 58
193 197 200 200 200 201 201 200 199 199 202 202 198 192 197 198 205 205 203 199 206 213 208 202 184 190 171 146 131 132 138 154 176 191 190 186 184 169 187 183 178 171 163 153 142 136 133 129 126 121 117 113 109 106 102 97 92 87 81 78 73 66 29 70 70 75 75 75 57 52 38 349 71 68 71 69 55 54 46 44 49 62 62 60 58
208 206 207 207 203 200 203 204 203 204 204 205 206 202 189 199 198 195 193 198 192 198 192 182 162 149 137 130 129 132 135 145 155 169 177 180 158 183 180 183 177 168 159 149 143 138 135 133 129 125 121 116 111 107 105 104 101 98 95 89 79 235 89 76 75 70 69 61 23 67 14 3 40 76 77 68 69 66 65 68 71 70 68 65 65
211 214 213 208 206 206 203 204 205 206 207 206 209 206 190 182 196 193 185 188 185 178 170 157 147 136 138 134 139 174 180 189 171 195 166 186 161 172 181 179 171 162 152 149 146 142 139 134 130 125 120 115 106 98 93 95 95 93 94 90 216 112 76 81 82 84 74 76 58 54 6 14 39 76 83 87 84 94 91 83 81 79 73 76 71
206 210 214 213 206 208 207 206 202 202 203 204 201 196 190 186 208 201 195 183 184 172 164 179 171 174 139 147 184 196 196 190 191 196 191 177 159 164 181 173 170 166 152 151 150 146 140 135 130 124 119 115 118 121 103 82 78 84 77 330 70 74 75 76 74 83 74 83 58 26 2 18 50 87 100 101 105 103 97 99 96 90 93 86 82
207 207 210 208 208 205 206 207 207 198 199 199 193 196 196 197 204 205 195 189 189 182 189 180 185 185 174 185 196 201 196 186 193 183 198 173 166 166 164 162 165 154 154 153 153 147 143 138 132 126 121 121 123 113 115 120 104 109 160 63 67 62 70 68 80 78 67 41 78 4 5 11 37 97 109 118 120 111 111 104 99 101 95 89 86
214 207 206 200 202 206 205 208 205 199 195 201 197 199 198 199 199 201 200 194 194 188 190 180 185 178 172 184 191 189 180 189 100 115 120 165 149 168 156 140 141 146 149 151 147 144 135 126 123 124 128 153 135 131 130 138 140 130 96 94 91 89 83 88 79 89 97 52 56 355 355 5 15 102 122 131 124 119 115 114 113 111 99 94 88
209 206 205 202 200 204 203 205 200 197 198 202 198 201 199 199 198 194 195 198 202 190 191 183 180 173 174 186 189 167 177 190 175 176 189 185 180 180 170 172 169 167 163 164 160 144 146 142 138 157 160 152 151 145 149 145 145 143 120 110 115 115 110 98 97 100 96 91 53 351 348 355 356 66 137 132 131 131 127 125 119 105 100 96 98
186 203 208 205 199 202 204 204 202 206 207 207 202 202 199 201 197 193 192 197 201 189 188 184 179 176 178 185 168 168 181 189 182 185 190 186 182 184 183 182 176 168 177 167 162 163 157 155 158 168 162 158 149 148 149 148 146 142 129 115 123 128 118 111 113 108 107 94 75 352 348 342 349 2 138 137 139 141 134 122 112 106 106 110 101
203 212 209 208 198 197 202 202 204 207 213 211 206 202 202 205 204 197 193 199 196 188 190 189 184 178 177 171 178 182 188 191 185 186 187 184 185 183 180 177 173 172 181 174 164 163 166 162 167 164 157 147 139 135 129 119 116 123 118 119 110 116 116 112 110 115 107 109 79 360 350 345 338 21 148 152 145 144 135 127 117 113 113 114 108
213 215 212 207 196 197 196 194 200 201 208 211 213 211 204 204 206 200 203 202 196 198 197 193 179 175 179 180 185 188 189 191 189 187 188 187 189 185 181 177 177 176 178 178 167 169 170 166 162 154 152 149 142 139 134 128 117 117 119 114 114 110 102 104 102 112 137 134 121 31 344 353 344 348 134 149 150 146 140 136 122 113 112 118 117
226 215 206 205 203 197 195 200 200 203 205 206 211 212 209 203 202 199 201 202 209 208 199 186 179 183 180 178 184 189 192 193 190 189 186 189 186 180 178 180 178 175 176 178 176 173 171 167 164 164 160 152 148 145 137 132 141 126 122 123 129 112 117 127 124 128 140 143 130 64 351 356 0 32 78 109 130 143 138 130 118 119 121 125 122
225 218 206 208 202 194 197 198 198 199 201 201 208 210 211 205 206 202 201 200 212 209 192 188 190 182 182 185 187 193 193 192 189 188 187 187 183 177 181 182 181 176 179 182 182 178 172 168 166 161 155 150 153 141 151 139 126 124 133 139 141 147 145 150 152 160 146 137 125 119 30 2 8 56 58 77 97 125 126 117 105 115 114 127 125
222 222 214 208 198 193 198 199 199 198 196 202 204 209 204 208 210 209 205 206 210 211 200 192 191 189 188 184 188 195 194 193 189 187 186 185 183 180 187 181 184 181 183 184 176 180 170 172 169 164 161 158 149 145 163 147 146 141 134 152 146 147 145 145 150 151 147 139 139 129 101 40 21 23 80 76 73 73 90 111 109 107 117 128 131
215 222 216 206 195 197 197 198 199 197 197 203 203 206 204 205 208 209 206 207 206 210 205 195 193 191 186 181 190 193 194 193 189 183 186 184 185 185 188 185 190 179 184 181 172 173 167 151 143 137 137 147 141 148 152 158 155 146 140 145 158 160 155 155 154 155 145 138 143 147 140 103 53 33 39 80 80 82 87 85 94 100 89 115 125
219 222 215 204 204 199 198 198 197 196 198 201 201 204 202 201 211 211 206 203 208 209 199 196 196 192 185 184 191 192 193 195 190 184 183 184 183 183 189 191 189 179 180 170 162 159 152 147 140 139 137 138 145 138 134 158 151 145 160 158 166 163 157 166 154 152 148 153 147 145 143 135 109 68 45 46 69 75 80 79 78 73 87 109 116
224 214 209 212 206 197 194 195 197 200 200 201 201 200 202 201 205 208 206 203 209 209 200 198 194 192 187 186 189 191 192 196 189 184 186 188 186 188 189 188 187 172 168 162 174 174 169 161 153 156 154 166 164 156 167 172 159 151 167 163 191 167 166 168 158 150 156 152 149 141 142 147 143 122 87 57 44 57 69 72 74 74 71 84 95
225 222 211 215 206 201 186 196 194 201 198 203 203 202 199 199 198 204 206 205 204 206 201 197 193 192 188 188 190 190 191 194 188 184 190 192 188 189 190 188 178 171 174 179 180 176 172 166 160 162 159 173 167 159 175 173 163 166 167 174 178 163 173 158 150 149 160 147 148 140 137 138 136 131 134 118 72 39 48 59 66 68 71 71 77
222 222 222 211 212 207 194 203 195 201 200 202 205 202 199 197 197 198 201 198 199 200 199 196 194 191 189 188 188 189 191 192 187 188 190 194 191 191 190 184 168 174 180 175 182 177 170 164 166 165 163 173 166 167 179 167 162 156 158 175 160 177 169 161 158 158 150 160 147 141 136 121 128 107 109 123 106 57 34 48 55 59 60 61 65
222 218 218 207 209 208 201 204 203 202 205 203 204 205 205 204 201 200 198 193 198 195 196 196 193 191 188 190 185 189 190 191 190 189 192 191 193 193 187 175 167 178 177 174 184 182 168 162 164 174 179 167 172 165 172 168 152 143 146 154 164 180 170 164 167 155 157 155 146 138 124 104 90 105 122 97 115 118 54 46 54 48 43 53 52
223 218 219 214 211 206 201 203 208 204 205 204 202 201 204 205 207 207 203 203 202 201 198 195 196 192 189 193 183 186 190 191 189 188 195 192 193 191 178 164 169 178 175 175 187 178 174 174 166 172 175 169 176 175 174 160 135 144 135 141 168 186 156 161 153 159 167 154 151 144 136 133 131 118 105 95 89 93 115 78 69 60 39 39 53
231 225 223 223 217 208 202 199 203 203 204 204 200 201 203 206 208 207 207 210 208 207 201 200 198 192 195 191 181 186 189 189 188 187 194 189 189 187 174 166 172 178 175 179 180 176 176 182 171 162 167 177 180 177 168 144 130 118 122 127 147 136 151 147 166 176 158 155 141 135 138 140 133 128 121 120 102 93 87 132 130 104 63 36 43
246 237 227 218 218 216 206 200 200 203 199 198 192 196 199 203 203 205 212 211 211 206 206 207 198 201 196 188 185 185 187 188 188 188 193 190 189 186 175 165 177 178 178 183 184 185 182 174 173 163 165 157 173 153 141 139 126 114 111 106 100 105 133 167 179 162 157 149 153 164 155 144 145 131 125 127 116 103 109 106 107 105 103 69 49
260 247 231 224 222 219 205 208 200 199 196 194 197 195 199 204 211 212 215 206 208 206 208 209 209 208 198 192 186 188 189 185 187 186 193 191 190 179 167 169 177 182 187 191 185 179 175 174 164 165 168 170 179 168 159 148 140 130 126 132 130 128 130 182 178 172 168 167 167 173 159 164 152 153 154 135 123 123 125 116 113 99 94 116 107
300 249 238 237 231 223 220 214 199 197 203 202 199 199 204 205 204 212 214 213 205 205 212 210 214 211 205 196 194 192 192 189 186 189 190 188 186 176 176 177 181 187 190 186 175 167 164 170 161 164 185 183 179 178 168 165 184 178 163 158 155 163 175 203 198 185 186 180 182 173 174 171 166 164 162 150 137 135 124 125 115 99 91 99 96
327 320 304 267 239 223 221 214 204 197 202 201 199 202 202 205 203 209 201 211 213 217 218 218 209 209 204 198 199 197 195 194 189 189 191 190 187 180 183 178 184 182 181 184 177 176 179 176 176 177 171 190 185 179 186 204 193 180 164 147 180 175 182 217 207 207 194 188 187 181 181 168 167 177 175 165 159 140 127 120 124 115 109 110 119
359 347 327 290 263 239 226 213 211 204 202 201 202 203 202 199 191 188 174 209 224 201 205 203 197 199 207 199 204 202 199 198 192 191 193 192 190 186 180 182 185 184 186 183 182 185 178 181 183 185 170 170 189 191 206 213 235 155 178 221 173 202 186 213 195 193 192 192 196 189 183 176 167 178 182 174 158 143 137 134 138 142 138 138 129
15 5 349 332 309 287 252 223 217 207 205 200 195 194 179 182 192 184 200 213 231 227 214 223 214 209 210 204 205 199 201 202 198 196 198 197 195 190 187 186 184 187 188 187 185 187 183 185 181 179 182 184 184 184 199 211 230 255 228 147 140 218 235 129 163 178 176 195 207 202 190 188 184 189 189 168 157 146 142 148 155 149 160 155 151
14 360 349 341 332 323 304 261 233 216 206 203 195 195 201 202 196 198 210 217 226 215 218 215 204 208 209 206 199 198 198 202 201 199 201 201 199 196 191 186 187 187 192 194 186 181 185 184 185 188 190 198 181 172 189 207 223 238 256 304 335 250 185 145 166 188 171 205 199 202 202 201 203 204 207 181 178 175 160 149 163 167 169 173 163
5 349 358 3 359 344 330 294 254 235 208 201 187 190 202 204 204 205 210 213 222 226 219 213 211 209 202 203 201 196 201 200 202 199 199 202 202 198 196 193 191 192 191 191 190 189 185 188 184 193 196 189 187 190 187 190 201 246 239 242 260 231 288 146 199 128 177 191 209 199 206 205 208 214 210 209 189 194 173 169 164 173 174 179 173
3 2 7 8 8 5 352 336 301 258 204 195 192 198 207 208 213 216 217 221 220 227 198 200 204 203 196 201 198 200 200 203 205 203 203 203 206 205 202 199 197 197 191 199 197 189 184 187 189 194 192 192 193 196 192 183 187 207 199 218 234 267 278 299 285 208 210 172 191 200 216 199 207 217 216 207 197 203 183 176 170 172 181 177 183
19 15 10 7 7 5 5 356 335 312 269 203 207 205 213 217 216 219 228 234 238 237 226 198 202 193 200 205 204 201 196 200 203 202 199 203 204 207 204 205 204 202 196 204 206 195 190 185 185 190 195 195 197 204 200 194 195 197 167 208 209 213 214 250 288 289 239 220 186 179 190 183 212 221 212 202 195 189 185 177 170 178 181 178 182
17 18 17 15 13 10 7 3 2 343 336 248 227 222 221 226 228 229 234 239 233 237 235 226 211 202 204 206 203 202 200 200 204 205 199 201 203 202 203 204 206 205 199 206 207 197 197 195 192 194 195 195 197 200 207 200 193 204 185 176 186 188 208 215 225 217 260 261 245 186 179 175 196 211 195 192 188 184 185 178 175 181 185 180 182
16 17 17 16 14 16 7 9 8 356 354 322 268 248 239 236 240 242 243 244 244 243 241 235 223 209 214 210 205 205 203 205 203 207 208 205 206 204 205 204 205 205 200 205 207 202 201 200 196 198 200 201 201 201 207 211 189 202 186 194 194 189 191 194 198 199 202 200 213 189 175 192 202 167 192 185 177 183 181 180 182 180 184 178 178